• In Portugal
  • List of Countries
  • For 7 days
  • Water Temperature
  • Satellite Maps
  • Weather Map
  • Weather Widgets
  • user-avatar
    Login

    Hourly Weather Jaú

    Today, 24 January, Wednesday

    Time Temperature Precipitation Wind Pressure Humidity
    00:00 +19°C° 0 mm 6 mps 760 mmHg 38%
    01:00 +19°C° 0 mm 6 mps 760 mmHg 38%
    02:00 +19°C° 0 mm 5 mps 760 mmHg 37%
    03:00 +19°C° 0 mm 5 mps 759 mmHg 37%
    04:00 +19°C° 0 mm 5 mps 760 mmHg 35%
    05:00 +17°C° 0 mm 5 mps 760 mmHg 34%
    06:00 +18°C° 0 mm 4 mps 760 mmHg 32%
    07:00 +19°C° 0 mm 5 mps 760 mmHg 30%
    08:00 +20°C° 0 mm 5 mps 761 mmHg 28%
    09:00 +21°C° 0 mm 5 mps 761 mmHg 25%
    10:00 +22°C° 0 mm 4 mps 761 mmHg 23%
    11:00 +23°C° 0 mm 4 mps 760 mmHg 21%
    12:00 +25°C° 0 mm 4 mps 760 mmHg 19%
    13:00 +26°C° 0 mm 3 mps 760 mmHg 18%
    14:00 +26°C° 0 mm 3 mps 759 mmHg 18%
    15:00 +27°C° 0 mm 3 mps 759 mmHg 18%
    16:00 +26°C° 0 mm 3 mps 759 mmHg 20%
    17:00 +25°C° 0 mm 3 mps 759 mmHg 22%
    18:00 +24°C° 0 mm 3 mps 760 mmHg 24%
    19:00 +24°C° 0 mm 3 mps 760 mmHg 26%
    20:00 +22°C° 0 mm 4 mps 760 mmHg 28%
    21:00 +22°C° 0 mm 4 mps 760 mmHg 30%
    22:00 +22°C° 0 mm 4 mps 760 mmHg 33%
    23:00 +21°C° 0 mm 3 mps 760 mmHg 36%

    Tomorrow, 25 January, Thursday

    Time Temperature Precipitation Wind Pressure Humidity
    00:00 +21°C° 0 mm 3 mps 760 mmHg 39%
    01:00 +21°C° 0 mm 3 mps 760 mmHg 40%
    02:00 +20°C° 0 mm 3 mps 760 mmHg 41%
    03:00 +20°C° 0 mm 2 mps 760 mmHg 42%
    04:00 +19°C° 0 mm 2 mps 760 mmHg 42%
    05:00 +19°C° 0 mm 2 mps 760 mmHg 42%
    06:00 +18°C° 0 mm 2 mps 760 mmHg 43%
    07:00 +20°C° 0 mm 2 mps 760 mmHg 38%
    08:00 +21°C° 0 mm 2 mps 761 mmHg 34%
    09:00 +24°C° 0 mm 2 mps 761 mmHg 30%
    10:00 +25°C° 0 mm 2 mps 761 mmHg 27%
    11:00 +25°C° 0 mm 2 mps 760 mmHg 25%
    12:00 +26°C° 0 mm 2 mps 760 mmHg 22%
    13:00 +27°C° 0 mm 2 mps 760 mmHg 22%
    14:00 +27°C° 0 mm 2 mps 759 mmHg 21%
    15:00 +27°C° 0 mm 2 mps 759 mmHg 20%
    16:00 +27°C° 0 mm 3 mps 759 mmHg 23%
    17:00 +26°C° 0 mm 3 mps 759 mmHg 25%
    18:00 +25°C° 0 mm 4 mps 759 mmHg 27%
    19:00 +25°C° 0 mm 4 mps 759 mmHg 34%
    20:00 +23°C° 0 mm 5 mps 759 mmHg 41%
    21:00 +23°C° 0 mm 5 mps 759 mmHg 47%
    22:00 +22°C° 0 mm 5 mps 759 mmHg 48%
    23:00 +22°C° 0 mm 5 mps 759 mmHg 50%

    Day after tomorrow, 26 January, Friday

    Time Temperature Precipitation Wind Pressure Humidity
    00:00 +22°C° 0 mm 5 mps 759 mmHg 51%
    01:00 +21°C° 0 mm 4 mps 759 mmHg 51%
    02:00 +21°C° 0 mm 4 mps 759 mmHg 51%
    03:00 +21°C° 0 mm 4 mps 759 mmHg 51%
    04:00 +21°C° 0 mm 4 mps 759 mmHg 51%
    05:00 +20°C° 0 mm 4 mps 759 mmHg 52%
    06:00 +20°C° 0 mm 4 mps 759 mmHg 53%
    07:00 +21°C° 0 mm 5 mps 760 mmHg 48%
    08:00 +22°C° 0 mm 5 mps 760 mmHg 43%
    09:00 +23°C° 0 mm 5 mps 760 mmHg 39%
    10:00 +25°C° 0 mm 4 mps 760 mmHg 33%
    11:00 +27°C° 0 mm 4 mps 760 mmHg 28%
    12:00 +28°C° 0 mm 4 mps 759 mmHg 23%
    13:00 +29°C° 0 mm 4 mps 759 mmHg 22%
    14:00 +29°C° 0 mm 3 mps 758 mmHg 21%
    15:00 +30°C° 0 mm 3 mps 758 mmHg 20%
    16:00 +29°C° 0 mm 3 mps 758 mmHg 21%
    17:00 +28°C° 0 mm 4 mps 758 mmHg 22%
    18:00 +27°C° 0 mm 4 mps 758 mmHg 23%
    19:00 +26°C° 0 mm 4 mps 758 mmHg 28%
    20:00 +25°C° 0 mm 5 mps 759 mmHg 32%
    21:00 +25°C° 0 mm 5 mps 759 mmHg 37%
    22:00 +23°C° 0 mm 4 mps 759 mmHg 37%
    23:00 +23°C° 0 mm 4 mps 759 mmHg 37%

    27 January, Saturday

    Time Temperature Precipitation Wind Pressure Humidity
    00:00 +22°C° 0 mm 3 mps 759 mmHg 38%
    01:00 +22°C° 0 mm 3 mps 759 mmHg 38%
    02:00 +21°C° 0 mm 2 mps 758 mmHg 39%
    03:00 +20°C° 0 mm 2 mps 758 mmHg 40%
    04:00 +20°C° 0 mm 2 mps 758 mmHg 40%
    05:00 +20°C° 0 mm 2 mps 759 mmHg 41%
    06:00 +20°C° 0 mm 2 mps 759 mmHg 42%
    07:00 +21°C° 0 mm 2 mps 759 mmHg 40%
    08:00 +24°C° 0 mm 2 mps 760 mmHg 37%
    09:00 +25°C° 0 mm 2 mps 760 mmHg 35%
    10:00 +26°C° 0 mm 3 mps 760 mmHg 34%
    11:00 +26°C° 0 mm 3 mps 759 mmHg 34%
    12:00 +27°C° 0 mm 3 mps 759 mmHg 33%
    13:00 +27°C° 0 mm 4 mps 758 mmHg 34%
    14:00 +27°C° 0 mm 4 mps 758 mmHg 36%
    15:00 +27°C° 0 mm 4 mps 758 mmHg 37%
    16:00 +25°C° 0 mm 5 mps 758 mmHg 45%
    17:00 +23°C° 0 mm 6 mps 758 mmHg 53%
    18:00 +22°C° 0 mm 7 mps 758 mmHg 61%
    19:00 +21°C° 0 mm 7 mps 759 mmHg 63%
    20:00 +21°C° 0 mm 8 mps 760 mmHg 64%
    21:00 +19°C° 0 mm 9 mps 760 mmHg 65%
    22:00 +19°C° 0 mm 10 mps 760 mmHg 62%
    23:00 +19°C° 0 mm 10 mps 760 mmHg 59%

    28 January, Sunday

    Time Temperature Precipitation Wind Pressure Humidity
    00:00 +19°C° 0 mm 11 mps 760 mmHg 56%
    01:00 +18°C° 0 mm 11 mps 760 mmHg 54%
    02:00 +18°C° 0 mm 12 mps 760 mmHg 52%
    03:00 +18°C° 0 mm 12 mps 760 mmHg 51%
    04:00 +17°C° 0 mm 12 mps 761 mmHg 48%
    05:00 +17°C° 0 mm 11 mps 761 mmHg 45%
    06:00 +17°C° 0 mm 11 mps 761 mmHg 43%
    07:00 +17°C° 0 mm 11 mps 762 mmHg 42%
    08:00 +18°C° 0 mm 11 mps 762 mmHg 41%
    09:00 +18°C° 0 mm 11 mps 763 mmHg 40%
    10:00 +19°C° 0 mm 11 mps 763 mmHg 39%
    11:00 +19°C° 0 mm 10 mps 762 mmHg 37%
    12:00 +21°C° 0 mm 10 mps 762 mmHg 36%
    13:00 +21°C° 0 mm 10 mps 762 mmHg 36%
    14:00 +21°C° 0 mm 10 mps 762 mmHg 36%
    15:00 +19°C° 0 mm 10 mps 761 mmHg 37%
    16:00 +19°C° 0 mm 10 mps 762 mmHg 39%
    17:00 +18°C° 0 mm 10 mps 762 mmHg 41%
    18:00 +17°C° 0 mm 9 mps 762 mmHg 44%
    19:00 +17°C° 0 mm 9 mps 762 mmHg 44%
    20:00 +17°C° 0 mm 9 mps 763 mmHg 45%
    21:00 +17°C° 0 mm 8 mps 763 mmHg 45%
    22:00 +17°C° 0 mm 8 mps 763 mmHg 45%
    23:00 +16°C° 0 mm 8 mps 763 mmHg 45%

    29 January, Monday

    Time Temperature Precipitation Wind Pressure Humidity
    00:00 +16°C° 0 mm 9 mps 762 mmHg 46%
    01:00 +16°C° 0 mm 9 mps 762 mmHg 45%
    02:00 +16°C° 0 mm 9 mps 762 mmHg 45%
    03:00 +15°C° 0 mm 9 mps 762 mmHg 45%
    04:00 +15°C° 0 mm 9 mps 762 mmHg 45%
    05:00 +15°C° 0 mm 9 mps 763 mmHg 46%
    06:00 +13°C° 0 mm 9 mps 763 mmHg 47%
    07:00 +15°C° 0 mm 9 mps 763 mmHg 44%
    08:00 +16°C° 0 mm 9 mps 764 mmHg 42%
    09:00 +16°C° 0 mm 10 mps 764 mmHg 40%
    10:00 +17°C° 0 mm 9 mps 764 mmHg 37%
    11:00 +18°C° 0 mm 9 mps 764 mmHg 34%
    12:00 +18°C° 0 mm 9 mps 763 mmHg 30%
    13:00 +19°C° 0 mm 9 mps 763 mmHg 29%
    14:00 +20°C° 0 mm 8 mps 763 mmHg 28%
    15:00 +20°C° 0 mm 8 mps 762 mmHg 27%
    16:00 +20°C° 0 mm 8 mps 763 mmHg 30%
    17:00 +18°C° 0 mm 7 mps 763 mmHg 33%
    18:00 +17°C° 0 mm 7 mps 763 mmHg 37%
    19:00 +17°C° 0 mm 7 mps 763 mmHg 37%
    20:00 +17°C° 0 mm 7 mps 764 mmHg 38%
    21:00 +16°C° 0 mm 6 mps 764 mmHg 38%
    22:00 +16°C° 0 mm 6 mps 764 mmHg 37%
    23:00 +16°C° 0 mm 6 mps 763 mmHg 36%
    Show more